ONEWEB-0035 (45143 NORAD) Tracking and Keplerian Element Data

This shows tracking and keplerian element data for the satellite.

Feedback or suggestion? Click here.




ElementValue
Catalog45143
NameONEWEB-0035
Epoch Orbit3818
Epoch Day293.91673611
Epoch Year2020
RAAN87.1875
Inclination87.908
Eccentricity0.002212
Argument of Perigee150.2275
Mean Anonmoly339.5834
Mean Motion13.376749
Decay Rate1.4E-07
L11 45143U 20008N 20293.91673611 .00000014 00000-0 00000-0 0 9992
L22 45143 87.9080 87.1875 0022120 150.2275 339.5834 13.37674900 38181

Live tracking and technical data element details for ONEWEB-0035 (NORAD 45143). ONEWEB-0035 can be tracked NOW for your location showing map with azimuth and elevation plus other details from your city location.

Track the satellite on the map from your city or location and see movement details for azimuth, elevation, latitude, longitude, range, height, and movement on the map or in text.







IsCatalogInMostPopularTable: catalog: 45143, numindb: 58
Update: records affected: 1



GetName: 45143 ONEWEB-0035

Hit Count: updated at: Tue, 20 Oct 2020 12:05:02 GMT